QPF
0.00 0.00 0.00 0.00 0.00 0.00 0.00 0.00 0.00 0.00 0.00 0.00 0.00 0.00 0.00 0.01 0.00 0.01 0.01 0.00 0.00 0.00 0.00 0.00 0.00 0.00 0.00 0.00 0.00 0.00 0.00 0.00 0.00 0.00 0.01 0.01 0.03 0.04
0.00 0.00 0.00 0.00 0.00 0.00 0.00 0.00 0.00 0.00 0.00 0.00 0.00 0.00 0.00 0.00 0.00 0.00 0.00 0.00 0.00 0.00 0.00 0.00 0.00 0.00 0.00 0.00 0.00 0.00 0.00 0.00 0.00 0.00 0.00 0.00 0.00 0.00
0.00 0.00 0.00 0.00 0.00 0.00 0.00 0.00 0.00 0.00 0.00 0.00 0.00 0.00 0.00 0.00 0.00 0.00 0.00 0.00 0.00 0.00 0.00 0.00 0.00 0.00 0.00 0.00 0.00 0.00 0.00 0.00 0.00 0.00 0.00 0.00 0.00 0.00
0.00 0.00 0.00 0.00 0.00 0.00 0.00 0.00 0.00 0.00 0.00 0.00 0.00 0.00 0.00 0.00 0.00 0.00 0.00 0.00 0.00 0.00 0.00 0.00 0.00 0.00 0.00 0.00 0.00 0.00 0.00 0.00 0.00 0.00 0.00 0.00 0.00 0.00
0.00 0.00 0.00 0.00 0.00 0.00 0.00 0.00 0.00 0.00 0.00 0.00 0.00 0.00 0.00 0.00 0.00 0.00 0.00 0.00 0.00 0.00 0.00 0.00 0.00 0.00 0.00 0.00 0.00 0.00 0.00 0.00 0.00 0.00 0.00 0.00 0.00 0.00
0.00 0.00 0.00 0.00 0.00 0.00 0.00 0.00 0.00 0.00 0.00 0.00 0.00 0.00 0.00 0.00 0.00 0.00 0.00 0.00 0.00 0.00 0.00 0.00 0.00 0.00 0.00 0.00 0.00 0.00 0.00 0.00 0.00 0.00 0.00 0.00 0.00 0.00
0.00 0.00 0.00 0.00 0.00 0.00 0.00 0.00 0.00 0.00 0.00 0.00 0.00 0.00 0.00 0.00 0.00 0.00 0.00 0.00 0.00 0.00 0.00 0.00 0.00 0.00 0.00 0.00 0.00 0.00 0.00 0.00 0.00 0.00 0.00 0.00 0.00 0.00
0.00 0.00 0.00 0.00 0.00 0.00 0.00 0.00 0.00 0.00 0.00 0.00 0.00 0.00 0.00 0.00 0.01 0.00 0.00 0.00 0.00 0.00 0.00 0.00 0.00 0.00 0.00 0.00 0.00 0.00 0.00 0.00 0.00 0.00 0.00 0.00 0.00 0.00
0.01 0.01 0.00 0.00 0.00 0.00 0.00 0.00 0.00 0.00 0.00 0.00 0.00 0.00 0.00 0.01 0.01 0.01 0.01 0.01 0.01 0.00 0.01 0.00 0.00 0.00 0.00 0.00 0.00 0.00 0.00 0.00 0.00 0.00 0.00 0.00 0.00 0.00
0.01 0.01 0.01 0.01 0.00 0.00 0.01 0.00 0.00 0.00 0.00 0.00 0.00 0.00 0.01 0.01 0.01 0.01 0.01 0.01 0.01 0.00 0.01 0.01 0.00 0.00 0.00 0.00 0.00 0.00 0.00 0.00 0.00 0.00 0.00 0.00 0.00 0.00
0.01 0.01 0.01 0.01 0.00 0.00 0.00 0.00 0.01 0.01 0.01 0.01 0.01 0.01 0.00 0.00 0.00 0.00 0.00 0.01 0.01 0.00 0.01 0.01 0.01 0.01 0.01 0.01 0.00 0.00 0.00 0.00 0.00 0.00 0.00 0.00 0.00 0.00
0.01 0.01 0.01 0.01 0.01 0.01 0.00 0.01 0.01 0.01 0.02 0.02 0.01 0.01 0.01 0.01 0.01 0.01 0.01 0.02 0.02 0.02 0.01 0.01 0.01 0.01 0.01 0.00 0.00 0.00 0.00 0.00 0.00 0.00 0.00 0.00 0.00 0.00
0.02 0.02 0.02 0.02 0.01 0.01 0.01 0.01 0.01 0.01 0.01 0.01 0.01 0.01 0.01 0.01 0.02 0.02 0.02 0.02 0.03 0.02 0.01 0.02 0.02 0.02 0.02 0.01 0.00 0.00 0.00 0.00 0.00 0.00 0.00 0.00 0.00 0.00
0.04 0.04 0.04 0.03 0.02 0.02 0.02 0.01 0.01 0.01 0.01 0.01 0.01 0.01 0.01 0.01 0.02 0.02 0.03 0.03 0.03 0.02 0.02 0.02 0.03 0.03 0.03 0.02 0.01 0.01 0.00 0.00 0.01 0.01 0.01 0.01 0.00 0.00
0.03 0.03 0.03 0.03 0.02 0.01 0.01 0.01 0.01 0.01 0.01 0.01 0.01 0.01 0.01 0.00 0.01 0.01 0.01 0.02 0.01 0.01 0.01 0.02 0.03 0.04 0.04 0.04 0.03 0.02 0.02 0.01 0.01 0.02 0.02 0.02 0.02 0.02
0.03 0.03 0.03 0.03 0.02 0.02 0.02 0.01 0.01 0.01 0.01 0.01 0.01 0.01 0.01 0.01 0.01 0.01 0.01 0.01 0.01 0.01 0.02 0.03 0.04 0.05 0.05 0.05 0.04 0.03 0.03 0.03 0.02 0.03 0.04 0.04 0.03 0.03
0.04 0.03 0.03 0.02 0.02 0.01 0.01 0.01 0.01 0.01 0.01 0.01 0.01 0.01 0.01 0.01 0.00 0.01 0.01 0.01 0.01 0.01 0.02 0.03 0.04 0.04 0.05 0.05 0.05 0.04 0.04 0.04 0.05 0.07 0.08 0.05 0.04 0.04
0.03 0.02 0.02 0.02 0.01 0.01 0.01 0.01 0.02 0.02 0.02 0.02 0.02 0.02 0.01 0.01 0.01 0.01 0.02 0.02 0.02 0.02 0.03 0.03 0.05 0.05 0.04 0.03 0.03 0.04 0.04 0.05 0.05 0.07 0.08 0.07 0.04 0.04
0.02 0.02 0.02 0.02 0.02 0.02 0.02 0.03 0.03 0.02 0.02 0.02 0.02 0.01 0.01 0.02 0.02 0.03 0.03 0.04 0.04 0.04 0.03 0.04 0.05 0.06 0.05 0.03 0.02 0.02 0.03 0.04 0.05 0.05 0.06 0.07 0.06 0.05
0.02 0.02 0.02 0.03 0.03 0.03 0.02 0.02 0.01 0.01 0.01 0.01 0.01 0.02 0.02 0.02 0.03 0.03 0.04 0.04 0.04 0.04 0.04 0.04 0.05 0.06 0.06 0.04 0.03 0.02 0.02 0.03 0.04 0.05 0.06 0.07 0.07 0.05
0.02 0.02 0.02 0.02 0.02 0.01 0.01 0.01 0.01 0.01 0.02 0.02 0.02 0.02 0.03 0.03 0.03 0.03 0.04 0.03 0.03 0.04 0.04 0.04 0.04 0.03 0.04 0.05 0.03 0.02 0.02 0.02 0.03 0.04 0.05 0.06 0.06 0.06
0.02 0.02 0.02 0.02 0.02 0.01 0.01 0.01 0.01 0.01 0.02 0.02 0.02 0.02 0.03 0.03 0.03 0.03 0.03 0.03 0.03 0.03 0.03 0.03 0.03 0.04 0.04 0.04 0.04 0.02 0.02 0.02 0.03 0.02 0.02 0.03 0.05 0.05
0.04 0.04 0.04 0.04 0.04 0.03 0.03 0.03 0.02 0.02 0.02 0.02 0.02 0.02 0.03 0.03 0.03 0.03 0.03 0.03 0.03 0.03 0.04 0.03 0.03 0.03 0.03 0.04 0.03 0.03 0.02 0.02 0.03 0.04 0.04 0.04 0.03 0.03
MSLP
1018.32 1018.47 1018.62 1018.75 1018.85 1018.92 1018.93 1018.90 1018.81 1018.68 1018.52 1018.36 1018.22 1018.12 1018.07 1018.09 1018.18 1018.31 1018.49 1018.68 1018.87 1019.03 1019.16 1019.23 1019.26 1019.24 1019.18 1019.09 1018.98 1018.87 1018.76 1018.66 1018.58 1018.51 1018.45 1018.39 1018.34 1018.29
1018.09 1018.25 1018.40 1018.54 1018.65 1018.73 1018.77 1018.76 1018.69 1018.58 1018.43 1018.26 1018.10 1017.96 1017.86 1017.81 1017.81 1017.87 1017.97 1018.10 1018.23 1018.36 1018.48 1018.56 1018.61 1018.62 1018.60 1018.55 1018.49 1018.41 1018.33 1018.25 1018.17 1018.10 1018.03 1017.95 1017.88 1017.80
1017.84 1018.00 1018.15 1018.28 1018.40 1018.49 1018.54 1018.55 1018.51 1018.42 1018.29 1018.13 1017.95 1017.78 1017.63 1017.51 1017.44 1017.40 1017.41 1017.45 1017.51 1017.59 1017.66 1017.73 1017.78 1017.81 1017.82 1017.82 1017.80 1017.77 1017.74 1017.69 1017.64 1017.58 1017.51 1017.44 1017.35 1017.26
1017.55 1017.70 1017.84 1017.96 1018.08 1018.17 1018.24 1018.27 1018.25 1018.19 1018.08 1017.94 1017.77 1017.58 1017.40 1017.23 1017.08 1016.96 1016.87 1016.82 1016.79 1016.78 1016.80 1016.82 1016.84 1016.87 1016.90 1016.93 1016.95 1016.96 1016.97 1016.97 1016.95 1016.92 1016.88 1016.82 1016.75 1016.66
1017.22 1017.34 1017.45 1017.56 1017.67 1017.76 1017.84 1017.89 1017.90 1017.87 1017.80 1017.69 1017.54 1017.36 1017.16 1016.96 1016.76 1016.56 1016.39 1016.24 1016.12 1016.02 1015.95 1015.90 1015.88 1015.87 1015.89 1015.92 1015.96 1016.00 1016.04 1016.08 1016.11 1016.12 1016.12 1016.09 1016.05 1015.99
1016.80 1016.89 1016.98 1017.07 1017.17 1017.26 1017.35 1017.42 1017.46 1017.46 1017.43 1017.36 1017.24 1017.08 1016.89 1016.68 1016.45 1016.21 1015.97 1015.74 1015.53 1015.33 1015.17 1015.03 1014.93 1014.87 1014.84 1014.84 1014.87 1014.93 1015.00 1015.07 1015.13 1015.19 1015.23 1015.26 1015.26 1015.25
1016.30 1016.36 1016.42 1016.50 1016.59 1016.68 1016.78 1016.86 1016.93 1016.97 1016.97 1016.93 1016.85 1016.72 1016.56 1016.35 1016.11 1015.85 1015.57 1015.28 1014.99 1014.72 1014.46 1014.23 1014.04 1013.90 1013.81 1013.76 1013.77 1013.81 1013.88 1013.97 1014.07 1014.17 1014.26 1014.33 1014.39 1014.43
1015.70 1015.75 1015.80 1015.88 1015.96 1016.06 1016.17 1016.27 1016.35 1016.41 1016.44 1016.42 1016.37 1016.27 1016.13 1015.94 1015.71 1015.45 1015.15 1014.83 1014.49 1014.14 1013.81 1013.50 1013.23 1013.00 1012.84 1012.73 1012.69 1012.70 1012.76 1012.85 1012.97 1013.09 1013.22 1013.34 1013.44 1013.53
1015.06 1015.10 1015.16 1015.25 1015.35 1015.46 1015.57 1015.67 1015.76 1015.82 1015.85 1015.85 1015.81 1015.72 1015.59 1015.42 1015.21 1014.95 1014.66 1014.32 1013.96 1013.58 1013.20 1012.83 1012.49 1012.19 1011.95 1011.78 1011.68 1011.65 1011.68 1011.76 1011.88 1012.01 1012.15 1012.30 1012.43 1012.56
1014.43 1014.49 1014.58 1014.68 1014.80 1014.93 1015.04 1015.14 1015.22 1015.26 1015.27 1015.24 1015.18 1015.09 1014.96 1014.79 1014.59 1014.35 1014.06 1013.74 1013.38 1012.99 1012.59 1012.19 1011.81 1011.46 1011.17 1010.94 1010.78 1010.70 1010.69 1010.73 1010.83 1010.95 1011.08 1011.22 1011.36 1011.49
1013.90 1013.99 1014.11 1014.24 1014.38 1014.52 1014.63 1014.71 1014.76 1014.76 1014.73 1014.65 1014.55 1014.42 1014.26 1014.08 1013.88 1013.64 1013.38 1013.08 1012.74 1012.37 1011.98 1011.57 1011.17 1010.80 1010.47 1010.19 1009.99 1009.85 1009.79 1009.78 1009.83 1009.91 1010.01 1010.12 1010.23 1010.34
1013.53 1013.66 1013.80 1013.96 1014.11 1014.25 1014.35 1014.41 1014.41 1014.36 1014.26 1014.12 1013.94 1013.75 1013.55 1013.34 1013.12 1012.89 1012.64 1012.37 1012.06 1011.72 1011.35 1010.96 1010.57 1010.18 1009.83 1009.52 1009.26 1009.07 1008.95 1008.88 1008.86 1008.88 1008.92 1008.98 1009.04 1009.10
1013.35 1013.49 1013.66 1013.82 1013.98 1014.10 1014.18 1014.20 1014.15 1014.04 1013.86 1013.65 1013.40 1013.15 1012.89 1012.64 1012.39 1012.15 1011.91 1011.65 1011.37 1011.06 1010.72 1010.35 1009.97 1009.58 1009.21 1008.87 1008.57 1008.33 1008.14 1008.00 1007.91 1007.85 1007.82 1007.80 1007.80 1007.80
1013.33 1013.47 1013.63 1013.79 1013.93 1014.03 1014.07 1014.05 1013.95 1013.78 1013.54 1013.26 1012.95 1012.63 1012.32 1012.02 1011.75 1011.49 1011.24 1010.99 1010.72 1010.43 1010.10 1009.75 1009.37 1008.98 1008.59 1008.22 1007.88 1007.57 1007.31 1007.10 1006.93 1006.80 1006.69 1006.60 1006.53 1006.48
1013.41 1013.53 1013.66 1013.78 1013.89 1013.95 1013.96 1013.89 1013.75 1013.54 1013.27 1012.94 1012.59 1012.23 1011.88 1011.55 1011.24 1010.96 1010.69 1010.43 1010.16 1009.86 1009.53 1009.17 1008.78 1008.37 1007.95 1007.53 1007.14 1006.77 1006.45 1006.17 1005.93 1005.72 1005.55 1005.40 1005.28 1005.18
1013.52 1013.59 1013.66 1013.73 1013.78 1013.81 1013.78 1013.69 1013.53 1013.30 1013.01 1012.68 1012.32 1011.94 1011.58 1011.23 1010.90 1010.60 1010.31 1010.02 1009.71 1009.39 1009.02 1008.63 1008.20 1007.74 1007.27 1006.80 1006.34 1005.92 1005.53 1005.19 1004.89 1004.64 1004.42 1004.24 1004.09 1003.97
1013.58 1013.57 1013.58 1013.59 1013.59 1013.57 1013.52 1013.41 1013.26 1013.04 1012.78 1012.47 1012.13 1011.78 1011.43 1011.08 1010.75 1010.42 1010.10 1009.76 1009.41 1009.03 1008.60 1008.14 1007.64 1007.11 1006.57 1006.03 1005.51 1005.03 1004.59 1004.20 1003.86 1003.58 1003.34 1003.15 1002.99 1002.88
1013.54 1013.47 1013.40 1013.35 1013.31 1013.26 1013.19 1013.09 1012.96 1012.79 1012.57 1012.32 1012.03 1011.73 1011.41 1011.08 1010.75 1010.41 1010.05 1009.66 1009.24 1008.78 1008.27 1007.72 1007.13 1006.51 1005.88 1005.26 1004.68 1004.13 1003.65 1003.23 1002.87 1002.57 1002.34 1002.16 1002.03 1001.95
1013.44 1013.30 1013.18 1013.08 1013.00 1012.93 1012.86 1012.79 1012.69 1012.57 1012.42 1012.23 1012.02 1011.77 1011.49 1011.19 1010.87 1010.51 1010.11 1009.67 1009.18 1008.63 1008.02 1007.36 1006.67 1005.95 1005.23 1004.53 1003.88 1003.28 1002.75 1002.31 1001.95 1001.66 1001.44 1001.29 1001.19 1001.14
1013.31 1013.14 1012.98 1012.85 1012.75 1012.68 1012.62 1012.57 1012.51 1012.44 1012.35 1012.22 1012.06 1011.87 1011.63 1011.36 1011.04 1010.66 1010.23 1009.73 1009.16 1008.52 1007.81 1007.05 1006.26 1005.44 1004.64 1003.86 1003.14 1002.50 1001.94 1001.48 1001.12 1000.84 1000.65 1000.52 1000.45 1000.43
1013.25 1013.06 1012.89 1012.75 1012.65 1012.58 1012.53 1012.49 1012.46 1012.42 1012.36 1012.27 1012.15 1011.98 1011.77 1011.50 1011.17 1010.77 1010.30 1009.75 1009.11 1008.40 1007.61 1006.77 1005.88 1004.99 1004.11 1003.27 1002.49 1001.81 1001.23 1000.76 1000.39 1000.12 999.94 999.83 999.78 999.77
1013.31 1013.13 1012.97 1012.84 1012.74 1012.67 1012.62 1012.58 1012.55 1012.51 1012.45 1012.36 1012.23 1012.05 1011.83 1011.54 1011.19 1010.76 1010.26 1009.66 1008.98 1008.21 1007.36 1006.46 1005.52 1004.57 1003.64 1002.75 1001.94 1001.23 1000.63 1000.14 999.77 999.50 999.32 999.21 999.16 999.14
1013.52 1013.36 1013.22 1013.11 1013.01 1012.94 1012.88 1012.82 1012.75 1012.67 1012.56 1012.42 1012.24 1012.02 1011.75 1011.43 1011.04 1010.57 1010.03 1009.41 1008.70 1007.90 1007.04 1006.11 1005.15 1004.18 1003.23 1002.33 1001.50 1000.77 1000.15 999.65 999.27 998.98 998.79 998.66 998.58 998.53
Thickness
5724 5722 5723 5724 5723 5723 5722 5721 5716 5712 5713 5714 5713 5713 5709 5707 5703 5701 5700 5697 5695 5693 5692 5691 5690 5689 5688 5688 5687 5687 5686 5685 5685 5684 5684 5683 5683 5683
5721 5720 5719 5721 5720 5719 5719 5718 5716 5713 5711 5715 5711 5712 5707 5706 5702 5700 5699 5696 5694 5692 5691 5689 5688 5687 5687 5686 5685 5684 5684 5683 5682 5682 5681 5681 5680 5680
5718 5717 5715 5716 5716 5716 5715 5714 5712 5710 5706 5709 5710 5707 5701 5699 5699 5698 5697 5696 5697 5693 5690 5688 5686 5685 5684 5683 5683 5682 5681 5680 5680 5679 5678 5678 5677 5677
5716 5715 5713 5713 5710 5711 5710 5709 5708 5705 5703 5701 5703 5703 5699 5697 5695 5694 5696 5696 5695 5693 5689 5687 5685 5683 5682 5681 5680 5679 5678 5678 5677 5676 5675 5675 5674 5673
5715 5712 5711 5710 5706 5708 5705 5706 5705 5703 5700 5698 5698 5699 5697 5696 5693 5692 5693 5691 5691 5692 5689 5686 5684 5682 5680 5679 5678 5677 5676 5675 5674 5672 5672 5671 5670 5669
5713 5711 5710 5708 5705 5703 5702 5700 5699 5698 5696 5694 5694 5695 5693 5693 5689 5688 5689 5690 5689 5689 5687 5685 5683 5680 5679 5678 5676 5674 5673 5671 5670 5669 5667 5666 5665 5665
5710 5709 5708 5706 5703 5700 5701 5699 5696 5693 5693 5692 5691 5690 5689 5685 5685 5685 5683 5683 5684 5683 5683 5683 5682 5681 5680 5677 5674 5672 5669 5667 5665 5664 5663 5662 5661 5660
5707 5706 5705 5701 5698 5694 5692 5690 5688 5687 5687 5686 5686 5683 5680 5680 5679 5676 5675 5675 5674 5679 5676 5675 5676 5675 5675 5674 5673 5669 5665 5662 5660 5658 5657 5656 5655 5654
5704 5702 5702 5703 5696 5694 5689 5684 5682 5679 5677 5677 5678 5677 5675 5675 5670 5669 5666 5665 5665 5667 5666 5666 5668 5668 5669 5669 5666 5662 5659 5656 5654 5652 5651 5649 5648 5647
5702 5699 5697 5696 5694 5690 5688 5686 5684 5681 5676 5671 5671 5670 5669 5666 5663 5659 5657 5656 5657 5659 5657 5656 5660 5661 5663 5661 5659 5656 5653 5650 5647 5645 5644 5642 5641 5640
5698 5697 5694 5692 5687 5682 5680 5679 5678 5677 5673 5669 5665 5662 5658 5655 5651 5649 5650 5649 5651 5653 5654 5649 5651 5651 5652 5653 5653 5650 5646 5643 5641 5639 5637 5635 5633 5631
5694 5692 5687 5684 5680 5675 5673 5671 5669 5668 5666 5664 5658 5654 5651 5648 5643 5639 5640 5640 5641 5642 5645 5640 5640 5639 5640 5643 5643 5641 5639 5636 5634 5632 5630 5628 5624 5621
5690 5688 5685 5677 5671 5667 5663 5663 5661 5657 5656 5653 5651 5649 5646 5643 5640 5636 5633 5630 5629 5631 5632 5628 5627 5626 5625 5629 5631 5630 5629 5628 5626 5625 5622 5619 5616 5611
5683 5681 5678 5669 5663 5658 5655 5653 5648 5644 5645 5644 5643 5641 5638 5636 5634 5630 5626 5622 5619 5618 5617 5613 5612 5611 5610 5613 5616 5618 5617 5615 5613 5613 5612 5610 5606 5604
5674 5670 5664 5658 5653 5650 5646 5642 5638 5637 5637 5635 5634 5632 5630 5628 5623 5619 5617 5614 5611 5609 5608 5604 5601 5599 5597 5597 5600 5601 5601 5602 5600 5600 5599 5599 5598 5596
5661 5657 5651 5647 5644 5642 5639 5636 5633 5632 5629 5626 5625 5623 5621 5618 5614 5611 5608 5606 5603 5602 5600 5595 5591 5587 5585 5585 5584 5586 5586 5587 5588 5587 5587 5587 5586 5587
5653 5649 5646 5644 5640 5637 5634 5631 5627 5623 5619 5616 5614 5611 5609 5606 5603 5600 5596 5593 5590 5590 5589 5586 5582 5578 5575 5571 5570 5572 5573 5574 5575 5576 5574 5575 5577 5577
5642 5641 5638 5636 5632 5628 5625 5622 5618 5614 5611 5607 5603 5600 5598 5594 5591 5588 5585 5581 5578 5576 5574 5572 5569 5565 5563 5563 5559 5559 5561 5561 5562 5562 5561 5562 5566 5568
5633 5632 5630 5626 5622 5619 5615 5612 5608 5605 5600 5596 5593 5590 5586 5582 5578 5575 5572 5568 5565 5562 5560 5557 5553 5550 5548 5551 5554 5548 5547 5548 5549 5551 5551 5551 5554 5558
5625 5622 5618 5615 5611 5607 5604 5600 5597 5594 5590 5585 5581 5577 5573 5569 5566 5563 5559 5555 5553 5550 5548 5545 5541 5538 5535 5535 5539 5539 5535 5535 5537 5540 5542 5544 5546 5548
5614 5610 5606 5602 5599 5595 5591 5588 5584 5580 5577 5572 5568 5564 5561 5557 5554 5551 5548 5545 5539 5539 5537 5535 5532 5526 5524 5523 5526 5531 5532 5530 5529 5529 5532 5534 5538 5541
5601 5598 5594 5590 5587 5583 5579 5575 5572 5568 5564 5560 5556 5552 5549 5545 5542 5539 5537 5534 5531 5529 5527 5526 5523 5519 5517 5516 5519 5523 5527 5528 5527 5526 5526 5526 5527 5533
5587 5584 5581 5578 5575 5570 5566 5562 5558 5556 5552 5548 5544 5541 5538 5534 5531 5528 5526 5524 5521 5519 5517 5515 5514 5512 5511 5511 5514 5517 5521 5523 5525 5527 5529 5528 5525 5525